Find GGSE 5

NORAD ID: 2834 Int'l Des: 1967-053 Owner: NRO/NRL Country: US operational
LEOCIRCULAR

Live Position

Loading 3D Globe...

About GGSE 5

Description loading...

Upcoming Passes

Passes for default location (London). Set your location on the main map for personalized predictions.

Altitude History

Loading altitude history...

Two-Line Element Set

1 2834U 67053D 26105.84044777 -.00000027 00000-0 19387-4 0 9995
2 2834 69.9716 266.5501 0010010 284.3473 75.6521 13.96183788997437
Epoch: Apr 15, 2026 • Age: 6 hours

Current Status

Altitude 923.8 km
Velocity 7.39 km/s
Sub-Earth Point 59.68°N, 175.43°E
Type other

Most Searched